JNA660 RKTH-RKSS

Flight info

Callsign JNA660
Flight time N/A
Altitude 24000
Route ELAPI Y685 GUKDO
Aircraft B738/M-SDE2FGHIM3RWY/LB1

Departure

Time N/A
Airport Pohang Airport (G-815/K-3) (RKTH)

Arrival

Time 2026-05-01 09:23
Airport Gimpo International Airport (RKSS)
Time Latitude Longitude Altitude Speed Heading
2026-05-01 08:54 36.23450 128.98537 15288 ft 338 kts 310°
2026-05-01 08:55 36.24850 128.96237 16062 ft 340 kts 309°
2026-05-01 08:55 36.26272 128.93882 16825 ft 342 kts 309°
2026-05-01 08:55 36.27698 128.91511 17598 ft 344 kts 308°
2026-05-01 08:55 36.29127 128.89130 18295 ft 346 kts 308°
2026-05-01 08:56 36.30575 128.86716 18837 ft 351 kts 308°
2026-05-01 08:56 36.32058 128.84243 19454 ft 354 kts 308°
2026-05-01 08:56 36.33526 128.81799 20120 ft 354 kts 308°
2026-05-01 08:56 36.35003 128.79336 20672 ft 358 kts 308°
2026-05-01 08:57 36.36494 128.76849 21271 ft 360 kts 308°
2026-05-01 08:57 36.37991 128.74350 21872 ft 362 kts 308°
2026-05-01 08:57 36.39500 128.71830 22439 ft 365 kts 308°
2026-05-01 08:57 36.41022 128.69289 22959 ft 368 kts 308°
2026-05-01 08:58 36.42531 128.66765 23472 ft 371 kts 308°
2026-05-01 08:58 36.44061 128.64203 23750 ft 369 kts 308°
2026-05-01 08:58 36.45586 128.61648 23780 ft 370 kts 308°
2026-05-01 08:58 36.47130 128.59058 23789 ft 376 kts 308°
2026-05-01 08:59 36.48692 128.56439 23802 ft 377 kts 308°
2026-05-01 08:59 36.50246 128.53826 23794 ft 375 kts 308°
2026-05-01 08:59 36.51796 128.51221 23801 ft 374 kts 308°
2026-05-01 08:59 36.53343 128.48620 23793 ft 374 kts 308°
2026-05-01 09:00 36.54883 128.46028 23804 ft 373 kts 308°
2026-05-01 09:00 36.56428 128.43425 23810 ft 373 kts 308°
2026-05-01 09:00 36.57971 128.40824 23805 ft 374 kts 308°
2026-05-01 09:00 36.59516 128.38217 23803 ft 375 kts 308°
2026-05-01 09:01 36.61064 128.35605 23810 ft 375 kts 308°
2026-05-01 09:01 36.62615 128.32983 23801 ft 376 kts 308°
2026-05-01 09:01 36.63663 128.31212 23801 ft 376 kts 308°
2026-05-01 09:01 36.65216 128.28585 23803 ft 377 kts 308°
2026-05-01 09:02 36.66767 128.25957 23805 ft 377 kts 308°
2026-05-01 09:02 36.68316 128.23334 23801 ft 377 kts 308°
2026-05-01 09:02 36.69874 128.20692 23808 ft 377 kts 308°
2026-05-01 09:02 36.71427 128.18059 23808 ft 377 kts 308°
2026-05-01 09:03 36.72978 128.15414 23813 ft 378 kts 308°
2026-05-01 09:03 36.74503 128.12752 23801 ft 377 kts 307°
2026-05-01 09:03 36.76017 128.10086 23704 ft 375 kts 307°
2026-05-01 09:03 36.77508 128.07462 23409 ft 365 kts 308°
2026-05-01 09:04 36.78945 128.04919 23091 ft 354 kts 307°
2026-05-01 09:04 36.80343 128.02442 22832 ft 345 kts 307°
2026-05-01 09:04 36.81716 128.00028 22578 ft 337 kts 307°
2026-05-01 09:04 36.83071 127.97644 21836 ft 342 kts 308°
2026-05-01 09:05 36.84421 127.95265 21340 ft 339 kts 307°
2026-05-01 09:05 36.85760 127.92886 21094 ft 331 kts 307°
2026-05-01 09:05 36.87068 127.90554 20818 ft 325 kts 307°
2026-05-01 09:05 36.88359 127.88251 20445 ft 322 kts 307°
2026-05-01 09:06 36.89637 127.85969 19985 ft 319 kts 307°
2026-05-01 09:06 36.90902 127.83709 19573 ft 317 kts 307°
2026-05-01 09:06 36.92160 127.81462 19177 ft 315 kts 307°
2026-05-01 09:06 36.93411 127.79229 18770 ft 313 kts 307°
2026-05-01 09:07 36.94663 127.77000 18332 ft 313 kts 307°
2026-05-01 09:07 36.95917 127.74785 17881 ft 312 kts 308°
2026-05-01 09:07 36.97165 127.72581 17424 ft 310 kts 308°
2026-05-01 09:07 36.98403 127.70387 16995 ft 308 kts 308°
2026-05-01 09:08 36.99632 127.68208 16570 ft 306 kts 308°
2026-05-01 09:08 37.00868 127.66017 15884 ft 311 kts 309°
2026-05-01 09:08 37.02327 127.64024 15257 ft 311 kts 323°
2026-05-01 09:08 37.04169 127.62631 14841 ft 308 kts 334°
2026-05-01 09:09 37.06092 127.61510 14477 ft 304 kts 335°
2026-05-01 09:09 37.07846 127.60057 13998 ft 306 kts 316°
2026-05-01 09:09 37.08990 127.57796 13566 ft 313 kts 297°
2026-05-01 09:09 37.09682 127.55209 13120 ft 314 kts 292°
2026-05-01 09:10 37.10292 127.52586 12638 ft 313 kts 291°
2026-05-01 09:10 37.10888 127.49969 12163 ft 312 kts 291°
2026-05-01 09:10 37.11483 127.47352 11663 ft 312 kts 291°
2026-05-01 09:10 37.12078 127.44741 11302 ft 309 kts 291°
2026-05-01 09:11 37.12664 127.42158 10950 ft 308 kts 291°
2026-05-01 09:11 37.13249 127.39584 10585 ft 305 kts 291°
2026-05-01 09:11 37.13826 127.37039 10229 ft 302 kts 291°
2026-05-01 09:11 37.14395 127.34530 10069 ft 293 kts 291°
2026-05-01 09:12 37.14932 127.32130 10072 ft 279 kts 291°
2026-05-01 09:12 37.15587 127.29898 10015 ft 271 kts 299°
2026-05-01 09:12 37.16401 127.27731 9649 ft 278 kts 301°
2026-05-01 09:12 37.17241 127.25602 9249 ft 272 kts 301°
2026-05-01 09:13 37.18083 127.23513 8873 ft 266 kts 301°
2026-05-01 09:13 37.18918 127.21459 8332 ft 264 kts 301°
2026-05-01 09:13 37.19772 127.19427 7809 ft 262 kts 301°
2026-05-01 09:13 37.20638 127.17426 7326 ft 260 kts 301°
2026-05-01 09:14 37.21482 127.15484 7114 ft 248 kts 301°
2026-05-01 09:14 37.22326 127.13553 7037 ft 252 kts 301°
2026-05-01 09:14 37.23190 127.11646 6991 ft 250 kts 306°
2026-05-01 09:14 37.24422 127.10224 6936 ft 242 kts 327°
2026-05-01 09:15 37.25879 127.09169 6627 ft 241 kts 330°
2026-05-01 09:15 37.27363 127.08164 6122 ft 243 kts 330°
2026-05-01 09:15 37.28862 127.07175 5606 ft 244 kts 331°
2026-05-01 09:15 37.30356 127.06187 5185 ft 241 kts 331°
2026-05-01 09:16 37.31817 127.05228 5016 ft 230 kts 331°
2026-05-01 09:16 37.33215 127.04315 4993 ft 223 kts 331°
2026-05-01 09:16 37.34594 127.03418 4989 ft 225 kts 331°
2026-05-01 09:17 37.37371 127.01577 4730 ft 231 kts 331°
2026-05-01 09:17 37.38703 127.00475 4432 ft 230 kts 319°
2026-05-01 09:17 37.40968 126.97655 3813 ft 225 kts 314°
2026-05-01 09:18 37.42050 126.96269 3513 ft 218 kts 313°
2026-05-01 09:18 37.44094 126.93675 2988 ft 197 kts 313°
2026-05-01 09:19 37.45936 126.91343 2514 ft 178 kts 313°
2026-05-01 09:19 37.46784 126.90269 2281 ft 166 kts 313°
2026-05-01 09:19 37.47571 126.89272 2068 ft 156 kts 313°
2026-05-01 09:20 37.49011 126.87449 1716 ft 134 kts 310°
2026-05-01 09:20 37.50282 126.85835 1349 ft 131 kts 310°
2026-05-01 09:21 37.51601 126.84145 998 ft 141 kts 311°
2026-05-01 09:21 37.52307 126.83263 804 ft 143 kts 312°
2026-05-01 09:21 37.53695 126.81516 442 ft 144 kts 310°
2026-05-01 09:22 37.55107 126.79726 60 ft 137 kts 310°
2026-05-01 09:22 37.56073 126.78507 59 ft 53 kts 318°
2026-05-01 09:23 37.56291 126.78363 55 ft 20 kts 345°
2026-05-01 09:23 37.56467 126.78350 61 ft 0 kts 20°
2026-05-01 09:24 37.56478 126.78355 61 ft 1 kts 23°
2026-05-01 09:24 37.56498 126.78372 63 ft 10 kts 37°
2026-05-01 09:24 37.56662 126.78589 63 ft 18 kts 75°
2026-05-01 09:25 37.56515 126.78819 65 ft 17 kts 135°
2026-05-01 09:25 37.56357 126.79018 64 ft 15 kts 135°
2026-05-01 09:26 37.56276 126.79121 64 ft 20 kts 135°
2026-05-01 09:26 37.56030 126.79427 64 ft 24 kts 136°
2026-05-01 09:26 37.55916 126.79573 60 ft 23 kts 135°
2026-05-01 09:27 37.55697 126.79848 60 ft 22 kts 134°
2026-05-01 09:27 37.55592 126.79980 63 ft 21 kts 136°
2026-05-01 09:27 37.55496 126.80102 62 ft 15 kts 135°
2026-05-01 09:28 37.55495 126.80212 65 ft 15 kts 45°
2026-05-01 09:28 37.55562 126.80307 64 ft 14 kts 67°
2026-05-01 09:28 37.55612 126.80407 66 ft 11 kts 45°
2026-05-01 09:28 37.55650 126.80455 66 ft 3 kts 45°
2026-05-01 09:29 37.55658 126.80464 57 ft 0 kts 45°